Time,TemperatureF,DewpointF,PressureIn,WindDirection,WindDirectionDegrees,WindSpeedMPH,WindSpeedGustMPH,Humidity,HourlyPrecipIn,Conditions,Clouds,dailyrainin,SoftwareType,DateUTC
2013-09-06 00:01:00,53.1,26.8,17.72,NW,324,0.0,0.0,36,0.00,,---,0.00,VWS V14.01,2013-09-06 04:01:00,
2013-09-06 00:06:00,53.1,26.8,17.72,NW,324,0.0,0.0,36,0.00,,---,0.00,VWS V14.01,2013-09-06 04:06:00,
2013-09-06 00:11:00,52.9,26.7,17.72,NW,324,0.0,0.0,36,0.00,,---,0.00,VWS V14.01,2013-09-06 04:11:00,
2013-09-06 00:16:00,52.7,26.5,17.72,NW,324,0.0,0.0,36,0.00,,---,0.00,VWS V14.01,2013-09-06 04:16:00,
2013-09-06 00:21:00,52.3,26.2,17.72,NW,324,0.0,0.0,36,0.00,,---,0.00,VWS V14.01,2013-09-06 04:21:00,
2013-09-06 00:26:00,52.2,26.0,17.72,NW,324,0.0,0.0,36,0.00,,---,0.00,VWS V14.01,2013-09-06 04:26:00,
2013-09-06 00:31:00,52.2,26.0,17.72,NW,324,0.0,0.0,36,0.00,,---,0.00,VWS V14.01,2013-09-06 04:31:00,
2013-09-06 00:36:00,52.2,26.0,17.72,NW,324,0.0,0.0,36,0.00,,---,0.00,VWS V14.01,2013-09-06 04:36:00,
2013-09-06 00:41:00,52.0,25.9,17.72,NW,324,0.0,0.0,36,0.00,,---,0.00,VWS V14.01,2013-09-06 04:41:00,
2013-09-06 00:46:00,52.0,25.9,17.72,NW,324,0.0,0.0,36,0.00,,---,0.00,VWS V14.01,2013-09-06 04:46:00,
2013-09-06 00:51:00,51.8,25.7,17.72,NW,324,0.0,0.0,36,0.00,,---,0.00,VWS V14.01,2013-09-06 04:51:00,
2013-09-06 00:56:00,51.8,25.7,17.72,NW,324,0.0,0.0,36,0.00,,---,0.00,VWS V14.01,2013-09-06 04:56:00,
2013-09-06 01:01:00,51.4,25.4,17.72,NW,324,0.0,0.0,36,0.00,,---,0.00,VWS V14.01,2013-09-06 05:01:00,
2013-09-06 01:06:00,51.3,25.2,17.72,NW,324,0.0,0.0,36,0.00,,---,0.00,VWS V14.01,2013-09-06 05:06:00,
2013-09-06 01:11:00,50.9,24.9,17.72,NW,324,0.0,0.0,36,0.00,,---,0.00,VWS V14.01,2013-09-06 05:11:00,
2013-09-06 01:16:00,50.7,24.8,17.72,NW,324,0.0,0.0,36,0.00,,---,0.00,VWS V14.01,2013-09-06 05:16:00,
2013-09-06 01:21:00,50.4,25.1,17.72,NW,324,0.0,0.0,37,0.00,,---,0.00,VWS V14.01,2013-09-06 05:21:00,
2013-09-06 01:26:00,50.2,24.9,17.72,NW,324,0.0,0.0,37,0.00,,---,0.00,VWS V14.01,2013-09-06 05:26:00,
2013-09-06 01:31:00,50.0,24.8,17.72,NW,324,0.0,0.0,37,0.00,,---,0.00,VWS V14.01,2013-09-06 05:31:00,
2013-09-06 01:36:00,50.0,24.8,17.72,NW,324,0.0,0.0,37,0.00,,---,0.00,VWS V14.01,2013-09-06 05:36:00,
2013-09-06 01:41:00,49.6,24.5,17.72,NW,324,0.0,0.0,37,0.00,,---,0.00,VWS V14.01,2013-09-06 05:41:00,
2013-09-06 01:46:00,49.6,24.5,17.72,NW,324,0.0,0.0,37,0.00,,---,0.00,VWS V14.01,2013-09-06 05:46:00,
2013-09-06 01:51:00,49.5,24.3,17.72,NW,324,0.0,0.0,37,0.00,,---,0.00,VWS V14.01,2013-09-06 05:51:00,
2013-09-06 01:56:00,49.3,24.1,17.72,NW,324,0.0,0.0,37,0.00,,---,0.00,VWS V14.01,2013-09-06 05:56:00,
2013-09-06 02:01:00,49.3,24.1,17.72,NW,324,0.0,0.0,37,0.00,,---,0.00,VWS V14.01,2013-09-06 06:01:00,
2013-09-06 02:06:00,49.3,24.1,17.72,NW,324,0.0,0.0,37,0.00,,---,0.00,VWS V14.01,2013-09-06 06:06:00,
2013-09-06 02:11:00,49.1,24.0,17.72,NW,324,0.0,0.0,37,0.00,,---,0.00,VWS V14.01,2013-09-06 06:11:00,
2013-09-06 02:16:00,48.9,23.8,17.72,NW,324,0.0,0.0,37,0.00,,---,0.00,VWS V14.01,2013-09-06 06:16:00,
2013-09-06 02:21:00,48.9,23.8,17.72,NW,324,0.0,0.0,37,0.00,,---,0.00,VWS V14.01,2013-09-06 06:21:00,
2013-09-06 02:26:00,48.9,23.8,17.72,NW,304,0.0,0.0,37,0.00,,---,0.00,VWS V14.01,2013-09-06 06:26:00,
2013-09-06 02:31:00,48.9,23.8,17.72,NW,304,0.0,0.0,37,0.00,,---,0.00,VWS V14.01,2013-09-06 06:31:00,
2013-09-06 02:36:00,48.7,23.6,17.72,NW,304,0.0,0.0,37,0.00,,---,0.00,VWS V14.01,2013-09-06 06:36:00,
2013-09-06 02:41:00,48.7,23.6,17.72,NW,304,0.0,0.0,37,0.00,,---,0.00,VWS V14.01,2013-09-06 06:41:00,
2013-09-06 02:46:00,48.6,23.5,17.72,NW,304,0.0,0.0,37,0.00,,---,0.00,VWS V14.01,2013-09-06 06:46:00,
2013-09-06 02:51:00,48.6,23.5,17.72,NW,304,0.0,0.0,37,0.00,,---,0.00,VWS V14.01,2013-09-06 06:51:00,
2013-09-06 02:56:00,48.4,23.3,17.72,NW,304,0.0,0.0,37,0.00,,---,0.00,VWS V14.01,2013-09-06 06:56:00,
2013-09-06 03:01:00,48.4,23.3,17.72,NW,304,0.0,0.0,37,0.00,,---,0.00,VWS V14.01,2013-09-06 07:01:00,
2013-09-06 03:06:00,48.2,23.2,17.72,NW,304,0.0,0.0,37,0.00,,---,0.00,VWS V14.01,2013-09-06 07:06:00,
2013-09-06 03:11:00,48.0,23.6,17.72,NW,304,0.0,0.0,38,0.00,,---,0.00,VWS V14.01,2013-09-06 07:11:00,
2013-09-06 03:16:00,48.0,23.6,17.72,NW,304,0.0,0.0,38,0.00,,---,0.00,VWS V14.01,2013-09-06 07:16:00,
2013-09-06 03:21:00,47.8,23.5,17.72,NW,304,0.0,0.0,38,0.00,,---,0.00,VWS V14.01,2013-09-06 07:21:00,
2013-09-06 03:26:00,47.7,23.3,17.72,NW,304,0.0,0.0,38,0.00,,---,0.00,VWS V14.01,2013-09-06 07:26:00,
2013-09-06 03:31:00,47.5,23.2,17.72,NW,304,0.0,0.0,38,0.00,,---,0.00,VWS V14.01,2013-09-06 07:31:00,
2013-09-06 03:36:00,47.3,23.0,17.72,NW,304,0.0,0.0,38,0.00,,---,0.00,VWS V14.01,2013-09-06 07:36:00,
2013-09-06 03:41:00,47.5,23.2,17.72,NW,304,0.0,0.0,38,0.00,,---,0.00,VWS V14.01,2013-09-06 07:41:00,
2013-09-06 03:46:00,47.3,23.0,17.72,NW,304,0.0,0.0,38,0.00,,---,0.00,VWS V14.01,2013-09-06 07:46:00,
2013-09-06 03:51:00,47.5,23.2,17.72,NW,304,0.0,0.0,38,0.00,,---,0.00,VWS V14.01,2013-09-06 07:51:00,
2013-09-06 03:56:00,47.5,23.2,17.72,NW,304,0.0,0.0,38,0.00,,---,0.00,VWS V14.01,2013-09-06 07:56:00,
2013-09-06 04:01:00,47.7,23.3,17.72,NW,304,0.0,0.0,38,0.00,,---,0.00,VWS V14.01,2013-09-06 08:01:00,
2013-09-06 04:06:00,47.7,23.3,17.72,NW,304,0.0,0.0,38,0.00,,---,0.00,VWS V14.01,2013-09-06 08:06:00,
2013-09-06 04:11:00,47.7,23.3,17.72,NW,304,0.0,0.0,38,0.00,,---,0.00,VWS V14.01,2013-09-06 08:11:00,
2013-09-06 04:16:00,47.7,23.3,17.72,NW,304,0.0,0.0,38,0.00,,---,0.00,VWS V14.01,2013-09-06 08:16:00,
2013-09-06 04:21:00,47.7,23.3,17.72,NW,304,0.0,0.0,38,0.00,,---,0.00,VWS V14.01,2013-09-06 08:21:00,
2013-09-06 04:26:00,47.5,23.2,17.72,NW,304,0.0,0.0,38,0.00,,---,0.00,VWS V14.01,2013-09-06 08:26:00,
2013-09-06 04:31:00,47.5,23.2,17.72,NW,304,0.0,0.0,38,0.00,,---,0.00,VWS V14.01,2013-09-06 08:31:00,
2013-09-06 04:36:00,47.3,23.0,17.72,NW,304,0.0,0.0,38,0.00,,---,0.00,VWS V14.01,2013-09-06 08:36:00,
2013-09-06 04:41:00,47.3,23.0,17.72,NW,304,0.0,0.0,38,0.00,,---,0.00,VWS V14.01,2013-09-06 08:41:00,
2013-09-06 04:46:00,47.3,23.0,17.72,NW,304,0.0,0.0,38,0.00,,---,0.00,VWS V14.01,2013-09-06 08:46:00,
2013-09-06 04:51:00,47.3,23.0,17.72,NW,304,0.0,0.0,38,0.00,,---,0.00,VWS V14.01,2013-09-06 08:51:00,
2013-09-06 04:56:00,47.1,22.8,17.72,NW,304,0.0,0.0,38,0.00,,---,0.00,VWS V14.01,2013-09-06 08:56:00,
2013-09-06 05:01:00,46.9,22.7,17.72,NW,304,0.0,0.0,38,0.00,,---,0.00,VWS V14.01,2013-09-06 09:01:00,
2013-09-06 05:06:00,46.9,22.7,17.72,NW,304,0.0,0.0,38,0.00,,---,0.00,VWS V14.01,2013-09-06 09:06:00,
2013-09-06 05:11:00,46.9,22.7,17.72,NW,304,0.0,0.0,38,0.00,,---,0.00,VWS V14.01,2013-09-06 09:11:00,
2013-09-06 05:16:00,46.9,22.7,17.72,NW,304,0.0,0.0,38,0.00,,---,0.00,VWS V14.01,2013-09-06 09:16:00,
2013-09-06 05:21:00,46.8,22.5,17.72,NW,304,0.0,0.0,38,0.00,,---,0.00,VWS V14.01,2013-09-06 09:21:00,
2013-09-06 05:26:00,46.8,22.5,17.72,NW,304,0.0,0.0,38,0.00,,---,0.00,VWS V14.01,2013-09-06 09:26:00,
2013-09-06 05:31:00,46.8,22.5,17.72,NW,304,0.0,0.0,38,0.00,,---,0.00,VWS V14.01,2013-09-06 09:31:00,
2013-09-06 05:36:00,46.8,22.5,17.72,NW,304,0.0,0.0,38,0.00,,---,0.00,VWS V14.01,2013-09-06 09:36:00,
2013-09-06 05:41:00,46.8,22.5,17.72,NW,304,0.0,0.0,38,0.00,,---,0.00,VWS V14.01,2013-09-06 09:41:00,
2013-09-06 05:46:00,46.8,22.5,17.72,NW,304,0.0,0.0,38,0.00,,---,0.00,VWS V14.01,2013-09-06 09:46:00,
2013-09-06 05:51:00,46.8,22.5,17.72,NW,304,0.0,0.0,38,0.00,,---,0.00,VWS V14.01,2013-09-06 09:51:00,
2013-09-06 05:56:00,46.6,22.4,17.72,NW,304,0.0,0.0,38,0.00,,---,0.00,VWS V14.01,2013-09-06 09:56:00,
2013-09-06 06:01:00,46.6,22.4,17.72,NW,304,0.0,0.0,38,0.00,,---,0.00,VWS V14.01,2013-09-06 10:01:00,
2013-09-06 06:06:00,46.6,22.4,17.72,NW,304,0.0,0.0,38,0.00,,---,0.00,VWS V14.01,2013-09-06 10:06:00,
2013-09-06 06:11:00,46.6,22.4,17.72,NW,304,0.0,0.0,38,0.00,,---,0.00,VWS V14.01,2013-09-06 10:11:00,
2013-09-06 06:16:00,46.6,22.4,17.72,NW,304,0.0,0.0,38,0.00,,---,0.00,VWS V14.01,2013-09-06 10:16:00,
2013-09-06 06:21:00,46.6,22.4,17.72,NW,306,0.0,0.0,38,0.00,,---,0.00,VWS V14.01,2013-09-06 10:21:00,
2013-09-06 06:26:00,46.6,22.4,17.72,NNW,330,0.0,0.0,38,0.00,,---,0.00,VWS V14.01,2013-09-06 10:26:00,
2013-09-06 06:31:00,46.4,22.2,17.72,NNW,330,0.0,0.0,38,0.00,,---,0.00,VWS V14.01,2013-09-06 10:31:00,
2013-09-06 06:36:00,46.4,22.2,17.72,North,0,0.0,0.0,38,0.00,,---,0.00,VWS V14.01,2013-09-06 10:36:00,
2013-09-06 06:41:00,46.4,22.2,17.72,North,0,0.0,0.0,38,0.00,,---,0.00,VWS V14.01,2013-09-06 10:41:00,
2013-09-06 06:46:00,46.2,22.0,17.72,North,0,0.0,0.0,38,0.00,,---,0.00,VWS V14.01,2013-09-06 10:46:00,
2013-09-06 06:51:00,46.2,22.0,17.72,North,0,0.0,0.0,38,0.00,,---,0.00,VWS V14.01,2013-09-06 10:51:00,
2013-09-06 06:56:00,46.2,22.0,17.72,North,0,0.0,0.0,38,0.00,,---,0.00,VWS V14.01,2013-09-06 10:56:00,
2013-09-06 07:01:00,46.4,22.2,17.72,North,0,0.0,0.0,38,0.00,,---,0.00,VWS V14.01,2013-09-06 11:01:00,
2013-09-06 07:06:00,46.4,22.2,17.72,North,0,0.0,0.0,38,0.00,,---,0.00,VWS V14.01,2013-09-06 11:06:00,
2013-09-06 07:11:00,46.4,22.2,17.72,North,0,0.0,0.0,38,0.00,,---,0.00,VWS V14.01,2013-09-06 11:11:00,
2013-09-06 07:16:00,46.4,22.2,17.72,North,0,0.0,0.0,38,0.00,,---,0.00,VWS V14.01,2013-09-06 11:16:00,
2013-09-06 07:21:00,46.4,22.2,17.72,NNE,16,0.0,0.0,38,0.00,,---,0.00,VWS V14.01,2013-09-06 11:21:00,
2013-09-06 07:26:00,46.4,22.2,17.72,NNE,16,0.0,0.0,38,0.00,,---,0.00,VWS V14.01,2013-09-06 11:26:00,
2013-09-06 07:31:00,46.4,22.2,17.72,NNE,16,0.0,0.0,38,0.00,,---,0.00,VWS V14.01,2013-09-06 11:31:00,
2013-09-06 07:36:00,46.6,22.4,17.72,NNE,16,0.0,0.0,38,0.00,,---,0.00,VWS V14.01,2013-09-06 11:36:00,
2013-09-06 07:41:00,46.6,22.4,17.72,NNE,16,0.0,0.0,38,0.00,,---,0.00,VWS V14.01,2013-09-06 11:41:00,
2013-09-06 07:46:00,46.6,22.4,17.72,NNE,16,0.0,0.0,38,0.00,,---,0.00,VWS V14.01,2013-09-06 11:46:00,
2013-09-06 07:51:00,46.8,22.5,17.72,NNE,16,0.0,0.0,38,0.00,,---,0.00,VWS V14.01,2013-09-06 11:51:00,
2013-09-06 07:56:00,46.9,22.7,17.72,NNE,16,0.0,0.0,38,0.00,,---,0.00,VWS V14.01,2013-09-06 11:56:00,
2013-09-06 08:01:00,47.3,23.0,17.72,NNE,16,0.0,0.0,38,0.00,,---,0.00,VWS V14.01,2013-09-06 12:01:00,
2013-09-06 08:06:00,47.3,23.0,17.72,NNE,16,0.0,0.0,38,0.00,,---,0.00,VWS V14.01,2013-09-06 12:06:00,
2013-09-06 08:11:00,47.7,23.3,17.72,NNE,16,0.0,0.0,38,0.00,,---,0.00,VWS V14.01,2013-09-06 12:11:00,
2013-09-06 08:16:00,47.8,23.5,17.72,NNE,16,0.0,0.0,38,0.00,,---,0.00,VWS V14.01,2013-09-06 12:16:00,
2013-09-06 08:21:00,47.8,23.5,17.72,NNE,16,0.0,0.0,38,0.00,,---,0.00,VWS V14.01,2013-09-06 12:21:00,
2013-09-06 08:26:00,48.0,23.6,17.72,NNE,16,0.0,0.0,38,0.00,,---,0.00,VWS V14.01,2013-09-06 12:26:00,
2013-09-06 08:31:00,48.2,23.2,17.72,NNE,16,0.0,0.0,37,0.00,,---,0.00,VWS V14.01,2013-09-06 12:31:00,
2013-09-06 08:36:00,48.4,23.3,17.72,NNE,16,0.0,0.0,37,0.00,,---,0.00,VWS V14.01,2013-09-06 12:36:00,
2013-09-06 08:41:00,48.6,23.5,17.72,NNE,16,0.0,0.0,37,0.00,,---,0.00,VWS V14.01,2013-09-06 12:41:00,
2013-09-06 08:46:00,48.9,23.8,17.72,NNE,16,0.0,0.0,37,0.00,,---,0.00,VWS V14.01,2013-09-06 12:46:00,
2013-09-06 08:51:00,49.3,24.1,17.72,NNE,25,0.0,0.0,37,0.00,,---,0.00,VWS V14.01,2013-09-06 12:51:00,
2013-09-06 08:56:00,49.6,24.5,17.72,NNE,25,0.0,0.0,37,0.00,,---,0.00,VWS V14.01,2013-09-06 12:56:00,
2013-09-06 09:01:00,50.0,24.8,17.72,NNW,340,0.0,0.0,37,0.00,,---,0.00,VWS V14.01,2013-09-06 13:01:00,
2013-09-06 09:06:00,50.4,25.1,17.72,NNE,18,0.0,0.0,37,0.00,,---,0.00,VWS V14.01,2013-09-06 13:06:00,
2013-09-06 09:11:00,50.7,25.4,17.72,WNW,289,0.0,0.0,37,0.00,,---,0.00,VWS V14.01,2013-09-06 13:11:00,
2013-09-06 09:16:00,50.9,25.6,17.72,WNW,287,0.0,0.0,37,0.00,,---,0.00,VWS V14.01,2013-09-06 13:16:00,
2013-09-06 09:21:00,51.1,25.7,17.72,WNW,282,0.0,0.0,37,0.00,,---,0.00,VWS V14.01,2013-09-06 13:21:00,
2013-09-06 09:26:00,51.4,26.0,17.72,WNW,286,0.0,0.0,37,0.00,,---,0.00,VWS V14.01,2013-09-06 13:26:00,
2013-09-06 09:31:00,51.6,26.2,17.72,NNE,23,0.0,0.0,37,0.00,,---,0.00,VWS V14.01,2013-09-06 13:31:00,
2013-09-06 09:36:00,52.2,26.0,17.72,West,281,0.0,0.0,36,0.00,,---,0.00,VWS V14.01,2013-09-06 13:36:00,
2013-09-06 09:41:00,52.5,26.4,17.72,NNE,14,0.0,0.0,36,0.00,,---,0.00,VWS V14.01,2013-09-06 13:41:00,
2013-09-06 09:46:00,52.7,26.5,17.72,West,277,0.0,0.0,36,0.00,,---,0.00,VWS V14.01,2013-09-06 13:46:00,
2013-09-06 09:51:00,53.1,26.8,17.72,NE,50,0.0,0.0,36,0.00,,---,0.00,VWS V14.01,2013-09-06 13:51:00,
2013-09-06 09:56:00,53.4,27.1,17.72,WNW,303,0.0,0.0,36,0.00,,---,0.00,VWS V14.01,2013-09-06 13:56:00,
2013-09-06 10:01:00,53.6,27.3,17.72,WNW,286,0.0,0.0,36,0.00,,---,0.00,VWS V14.01,2013-09-06 14:01:00,
2013-09-06 10:06:00,54.0,27.6,17.72,WNW,291,0.0,0.0,36,0.00,,---,0.00,VWS V14.01,2013-09-06 14:06:00,
2013-09-06 10:11:00,54.3,28.0,17.72,WNW,291,0.0,0.0,36,0.00,,---,0.00,VWS V14.01,2013-09-06 14:11:00,
2013-09-06 10:16:00,54.5,28.1,17.72,West,266,0.0,0.0,36,0.00,,---,0.00,VWS V14.01,2013-09-06 14:16:00,
2013-09-06 10:21:00,54.9,28.4,17.72,NNE,25,0.0,0.0,36,0.00,,---,0.00,VWS V14.01,2013-09-06 14:21:00,
2013-09-06 10:26:00,55.2,28.8,17.72,NNW,333,0.0,0.0,36,0.00,,---,0.00,VWS V14.01,2013-09-06 14:26:00,
2013-09-06 10:31:00,55.6,28.4,17.72,North,353,0.0,0.0,35,0.00,,---,0.00,VWS V14.01,2013-09-06 14:31:00,
2013-09-06 10:36:00,55.9,28.7,17.72,NE,38,0.0,0.0,35,0.00,,---,0.00,VWS V14.01,2013-09-06 14:36:00,
2013-09-06 10:41:00,56.5,29.2,17.72,NNE,24,0.0,0.0,35,0.00,,---,0.00,VWS V14.01,2013-09-06 14:41:00,
2013-09-06 10:46:00,56.5,29.2,17.72,NE,44,0.0,0.0,35,0.00,,---,0.00,VWS V14.01,2013-09-06 14:46:00,
2013-09-06 10:51:00,56.7,29.3,17.72,NNE,14,0.0,0.0,35,0.00,,---,0.00,VWS V14.01,2013-09-06 14:51:00,
2013-09-06 10:56:00,56.8,29.5,17.72,WNW,284,0.0,0.0,35,0.00,,---,0.00,VWS V14.01,2013-09-06 14:56:00,
2013-09-06 11:01:00,57.0,29.7,17.72,NW,305,0.0,0.0,35,0.00,,---,0.00,VWS V14.01,2013-09-06 15:01:00,
2013-09-06 11:06:00,57.2,29.8,17.72,NW,308,0.0,0.0,35,0.00,,---,0.00,VWS V14.01,2013-09-06 15:06:00,
2013-09-06 11:11:00,57.6,30.1,17.72,NW,317,0.0,0.0,35,0.00,,---,0.00,VWS V14.01,2013-09-06 15:11:00,
2013-09-06 11:16:00,57.6,30.1,17.72,NW,323,0.0,0.0,35,0.00,,---,0.00,VWS V14.01,2013-09-06 15:16:00,
2013-09-06 11:21:00,57.9,30.5,17.72,NW,322,0.0,0.0,35,0.00,,---,0.00,VWS V14.01,2013-09-06 15:21:00,
2013-09-06 11:26:00,58.5,30.9,17.72,NW,322,0.0,0.0,35,0.00,,---,0.00,VWS V14.01,2013-09-06 15:26:00,
2013-09-06 11:31:00,58.5,30.9,17.72,NW,322,0.0,0.0,35,0.00,,---,0.00,VWS V14.01,2013-09-06 15:31:00,
2013-09-06 11:36:00,58.8,31.2,17.72,WNW,294,0.0,0.0,35,0.00,,---,0.00,VWS V14.01,2013-09-06 15:36:00,
2013-09-06 11:41:00,59.2,30.9,17.72,WNW,294,0.0,0.0,34,0.00,,---,0.00,VWS V14.01,2013-09-06 15:41:00,
2013-09-06 11:45:00,59.2,30.9,27.79,NW,310,0.0,0.0,34,0.00,,---,0.00,VWS V14.01,2013-09-06 15:45:00,
2013-09-06 11:50:00,59.5,31.2,27.79,NW,319,0.0,0.0,34,0.00,,---,0.00,VWS V14.01,2013-09-06 15:50:00,
2013-09-06 11:55:00,60.1,31.6,27.79,NW,320,0.0,0.0,34,0.00,,---,0.00,VWS V14.01,2013-09-06 15:55:00,
2013-09-06 12:00:00,60.3,31.8,27.79,NNW,328,0.0,0.0,34,0.00,,---,0.00,VWS V14.01,2013-09-06 16:00:00,
2013-09-06 12:05:00,60.6,32.1,30.04,NW,313,0.0,0.0,34,0.00,,---,0.00,VWS V14.01,2013-09-06 16:05:00,
2013-09-06 12:10:00,61.2,32.6,30.04,NW,313,0.0,0.0,34,0.00,,---,0.00,VWS V14.01,2013-09-06 16:10:00,
2013-09-06 12:15:00,61.7,33.1,30.04,NNE,33,0.0,0.0,34,0.00,,---,0.00,VWS V14.01,2013-09-06 16:15:00,
2013-09-06 12:20:00,61.9,33.2,30.04,NE,34,0.0,0.0,34,0.00,,---,0.00,VWS V14.01,2013-09-06 16:20:00,
2013-09-06 12:25:00,62.4,33.7,30.04,NE,34,0.0,0.0,34,0.00,,---,0.00,VWS V14.01,2013-09-06 16:25:00,
2013-09-06 12:30:00,62.6,33.9,30.01,NW,322,0.0,0.0,34,0.00,,---,0.00,VWS V14.01,2013-09-06 16:30:00,
2013-09-06 12:35:00,62.8,34.0,30.01,NW,322,0.0,0.0,34,0.00,,---,0.00,VWS V14.01,2013-09-06 16:35:00,
2013-09-06 12:40:00,63.1,34.3,30.01,NW,322,0.0,0.0,34,0.00,,---,0.00,VWS V14.01,2013-09-06 16:40:00,
2013-09-06 12:45:00,63.5,34.7,30.04,NW,322,0.0,0.0,34,0.00,,---,0.00,VWS V14.01,2013-09-06 16:45:00,
2013-09-06 12:50:00,63.7,34.8,30.04,NW,308,0.0,0.0,34,0.00,,---,0.00,VWS V14.01,2013-09-06 16:50:00,
2013-09-06 12:55:00,64.0,35.1,30.04,NW,307,0.0,0.0,34,0.00,,---,0.00,VWS V14.01,2013-09-06 16:55:00,
2013-09-06 13:00:00,64.2,35.3,30.01,North,350,0.0,0.0,34,0.00,,---,0.00,VWS V14.01,2013-09-06 17:00:00,
2013-09-06 13:05:00,64.4,34.7,30.01,NNE,21,0.0,0.0,33,0.00,,---,0.00,VWS V14.01,2013-09-06 17:05:00,
2013-09-06 13:10:00,64.8,35.0,30.01,NNE,21,0.0,0.0,33,0.00,,---,0.00,VWS V14.01,2013-09-06 17:10:00,
2013-09-06 13:15:00,65.5,35.6,30.01,NW,312,0.0,0.0,33,0.00,,---,0.00,VWS V14.01,2013-09-06 17:15:00,
2013-09-06 13:20:00,65.8,36.0,30.01,NNE,28,0.0,0.0,33,0.00,,---,0.00,VWS V14.01,2013-09-06 17:20:00,
2013-09-06 13:25:00,66.2,36.3,30.01,WNW,295,0.0,0.0,33,0.00,,---,0.00,VWS V14.01,2013-09-06 17:25:00,
2013-09-06 13:30:00,66.4,36.4,30.01,WNW,301,0.0,0.0,33,0.00,,---,0.00,VWS V14.01,2013-09-06 17:30:00,
2013-09-06 13:35:00,66.7,36.8,30.01,NNE,15,0.0,0.0,33,0.00,,---,0.00,VWS V14.01,2013-09-06 17:35:00,
2013-09-06 13:40:00,67.3,37.2,30.01,NW,326,0.0,0.0,33,0.00,,---,0.00,VWS V14.01,2013-09-06 17:40:00,
2013-09-06 13:45:00,67.3,37.2,30.01,NNE,21,0.0,0.0,33,0.00,,---,0.00,VWS V14.01,2013-09-06 17:45:00,
2013-09-06 13:50:00,67.8,37.7,30.01,WNW,296,0.0,0.0,33,0.00,,---,0.00,VWS V14.01,2013-09-06 17:50:00,
2013-09-06 13:55:00,68.0,37.1,30.01,NW,310,0.0,0.0,32,0.00,,---,0.00,VWS V14.01,2013-09-06 17:55:00,
2013-09-06 14:00:00,68.5,37.5,30.01,NNE,19,0.0,0.0,32,0.00,,---,0.00,VWS V14.01,2013-09-06 18:00:00,
2013-09-06 14:05:00,68.7,37.7,30.01,NE,41,0.0,0.0,32,0.00,,---,0.00,VWS V14.01,2013-09-06 18:05:00,
2013-09-06 14:10:00,68.7,37.7,30.01,NNE,19,0.0,0.0,32,0.00,,---,0.00,VWS V14.01,2013-09-06 18:10:00,
2013-09-06 14:15:00,69.4,38.3,30.01,North,353,0.0,0.0,32,0.00,,---,0.00,VWS V14.01,2013-09-06 18:15:00,
2013-09-06 14:20:00,70.0,38.8,30.01,NNW,338,0.0,0.0,32,0.00,,---,0.00,VWS V14.01,2013-09-06 18:20:00,
2013-09-06 14:25:00,70.5,39.3,30.01,North,353,0.0,0.0,32,0.00,,---,0.00,VWS V14.01,2013-09-06 18:25:00,
2013-09-06 14:30:00,71.1,39.7,29.98,North,353,0.0,0.0,32,0.00,,---,0.00,VWS V14.01,2013-09-06 18:30:00,
2013-09-06 14:35:00,71.2,39.9,29.98,NNW,329,0.0,0.0,32,0.00,,---,0.00,VWS V14.01,2013-09-06 18:35:00,
2013-09-06 14:40:00,72.0,40.5,29.98,NNW,340,0.0,0.0,32,0.00,,---,0.00,VWS V14.01,2013-09-06 18:40:00,
2013-09-06 14:45:00,72.7,41.2,29.98,NNW,340,0.0,0.0,32,0.00,,---,0.00,VWS V14.01,2013-09-06 18:45:00,
2013-09-06 14:50:00,72.7,41.2,29.98,NW,325,0.0,0.0,32,0.00,,---,0.00,VWS V14.01,2013-09-06 18:50:00,
2013-09-06 14:55:00,73.6,41.1,29.98,NNW,337,0.0,0.0,31,0.00,,---,0.00,VWS V14.01,2013-09-06 18:55:00,
2013-09-06 15:00:00,72.9,41.3,29.98,NE,39,0.0,0.0,32,0.00,,---,0.00,VWS V14.01,2013-09-06 19:00:00,
2013-09-06 15:05:00,72.5,41.0,29.98,NW,318,0.0,0.0,32,0.00,,---,0.00,VWS V14.01,2013-09-06 19:05:00,
2013-09-06 15:10:00,73.6,41.1,29.98,NW,322,0.0,0.0,31,0.00,,---,0.00,VWS V14.01,2013-09-06 19:10:00,
2013-09-06 15:15:00,74.3,41.7,29.98,NW,325,0.0,0.0,31,0.00,,---,0.00,VWS V14.01,2013-09-06 19:15:00,
2013-09-06 15:20:00,74.3,41.7,29.98,NNE,29,0.0,0.0,31,0.00,,---,0.00,VWS V14.01,2013-09-06 19:20:00,
2013-09-06 15:25:00,74.3,41.7,29.98,North,357,0.0,0.0,31,0.00,,---,0.00,VWS V14.01,2013-09-06 19:25:00,
2013-09-06 15:30:00,74.3,41.7,29.98,WNW,301,0.0,0.0,31,0.00,,---,0.00,VWS V14.01,2013-09-06 19:30:00,
2013-09-06 15:35:00,74.7,42.0,29.98,WNW,286,0.0,0.0,31,0.00,,---,0.00,VWS V14.01,2013-09-06 19:35:00,
2013-09-06 15:40:00,75.2,42.5,29.98,WNW,298,0.0,0.0,31,0.00,,---,0.00,VWS V14.01,2013-09-06 19:40:00,
2013-09-06 15:45:00,75.7,43.0,29.98,WNW,301,0.0,0.0,31,0.00,,---,0.00,VWS V14.01,2013-09-06 19:45:00,
2013-09-06 15:50:00,75.6,42.8,29.98,North,0,0.0,0.0,31,0.00,,---,0.00,VWS V14.01,2013-09-06 19:50:00,
2013-09-06 15:55:00,75.0,42.4,29.98,ENE,58,0.0,0.0,31,0.00,,---,0.00,VWS V14.01,2013-09-06 19:55:00,
2013-09-06 16:00:00,75.6,42.8,29.95,ENE,58,0.0,0.0,31,0.00,,---,0.00,VWS V14.01,2013-09-06 20:00:00,
2013-09-06 16:05:00,75.4,42.7,29.95,North,2,0.0,0.0,31,0.00,,---,0.00,VWS V14.01,2013-09-06 20:05:00,
2013-09-06 16:10:00,74.7,42.0,29.95,West,266,0.0,0.0,31,0.00,,---,0.00,VWS V14.01,2013-09-06 20:10:00,
2013-09-06 16:15:00,74.3,41.7,29.95,NNE,28,0.0,0.0,31,0.00,,---,0.00,VWS V14.01,2013-09-06 20:15:00,
2013-09-06 16:20:00,74.5,41.9,29.95,NNE,30,0.0,0.0,31,0.00,,---,0.00,VWS V14.01,2013-09-06 20:20:00,
2013-09-06 16:25:00,75.0,42.4,29.95,NNE,28,0.0,0.0,31,0.00,,---,0.00,VWS V14.01,2013-09-06 20:25:00,
2013-09-06 16:30:00,75.7,43.0,29.95,NNE,28,0.0,0.0,31,0.00,,---,0.00,VWS V14.01,2013-09-06 20:30:00,
2013-09-06 16:35:00,77.2,43.4,29.95,NNE,28,0.0,0.0,30,0.00,,---,0.00,VWS V14.01,2013-09-06 20:35:00,
2013-09-06 16:40:00,77.2,43.4,29.95,NNE,28,0.0,0.0,30,0.00,,---,0.00,VWS V14.01,2013-09-06 20:40:00,
2013-09-06 16:45:00,77.4,43.5,29.95,NNE,17,0.0,0.0,30,0.00,,---,0.00,VWS V14.01,2013-09-06 20:45:00,
2013-09-06 16:50:00,79.0,44.9,29.95,NNE,17,0.0,0.0,30,0.00,,---,0.00,VWS V14.01,2013-09-06 20:50:00,
2013-09-06 16:55:00,84.4,48.7,29.95,NNE,17,0.0,0.0,29,0.00,,---,0.00,VWS V14.01,2013-09-06 20:55:00,
2013-09-06 17:00:00,86.7,49.8,29.95,NNE,17,0.0,0.0,28,0.00,,---,0.00,VWS V14.01,2013-09-06 21:00:00,
2013-09-06 17:05:00,90.3,52.8,29.95,North,0,0.0,0.0,28,0.00,,---,0.00,VWS V14.01,2013-09-06 21:05:00,
2013-09-06 17:10:00,91.9,53.2,29.95,NNE,18,0.0,0.0,27,0.00,,---,0.00,VWS V14.01,2013-09-06 21:10:00,
2013-09-06 17:15:00,82.8,47.3,29.95,NNE,18,0.0,0.0,29,0.00,,---,0.00,VWS V14.01,2013-09-06 21:15:00,
2013-09-06 17:20:00,76.5,43.6,29.95,NNE,18,0.0,0.0,31,0.00,,---,0.00,VWS V14.01,2013-09-06 21:20:00,
2013-09-06 17:25:00,73.4,41.0,29.95,NNE,18,0.0,0.0,31,0.00,,---,0.00,VWS V14.01,2013-09-06 21:25:00,
2013-09-06 17:30:00,72.0,40.5,29.95,NNE,18,0.0,0.0,32,0.00,,---,0.00,VWS V14.01,2013-09-06 21:30:00,
2013-09-06 17:35:00,70.9,39.6,29.95,NNE,18,0.0,0.0,32,0.00,,---,0.00,VWS V14.01,2013-09-06 21:35:00,
2013-09-06 17:40:00,70.3,39.1,29.95,NNE,17,0.0,0.0,32,0.00,,---,0.00,VWS V14.01,2013-09-06 21:40:00,
2013-09-06 17:45:00,70.0,38.8,29.95,NNE,17,0.0,0.0,32,0.00,,---,0.00,VWS V14.01,2013-09-06 21:45:00,
2013-09-06 17:50:00,69.6,38.5,29.95,NNE,18,0.0,0.0,32,0.00,,---,0.00,VWS V14.01,2013-09-06 21:50:00,
2013-09-06 17:55:00,69.3,38.2,29.95,NNE,17,0.0,0.0,32,0.00,,---,0.00,VWS V14.01,2013-09-06 21:55:00,
2013-09-06 18:00:00,68.5,37.5,29.95,NNE,17,0.0,0.0,32,0.00,,---,0.00,VWS V14.01,2013-09-06 22:00:00,
2013-09-06 18:05:00,68.0,37.1,29.95,NNE,17,0.0,0.0,32,0.00,,---,0.00,VWS V14.01,2013-09-06 22:05:00,
2013-09-06 18:10:00,67.6,37.5,29.95,NNE,17,0.0,0.0,33,0.00,,---,0.00,VWS V14.01,2013-09-06 22:10:00,
2013-09-06 18:15:00,67.3,37.2,29.95,NNE,17,0.0,0.0,33,0.00,,---,0.00,VWS V14.01,2013-09-06 22:15:00,
2013-09-06 18:20:00,66.9,36.9,29.95,NNE,17,0.0,0.0,33,0.00,,---,0.00,VWS V14.01,2013-09-06 22:20:00,
2013-09-06 18:25:00,66.6,36.6,29.95,NNE,17,0.0,0.0,33,0.00,,---,0.00,VWS V14.01,2013-09-06 22:25:00,
2013-09-06 18:30:00,66.2,36.3,29.95,NNE,17,0.0,0.0,33,0.00,,---,0.00,VWS V14.01,2013-09-06 22:30:00,
2013-09-06 18:35:00,65.7,35.8,29.95,NNE,17,0.0,0.0,33,0.00,,---,0.00,VWS V14.01,2013-09-06 22:35:00,
2013-09-06 18:40:00,65.3,35.5,29.95,NNE,17,0.0,0.0,33,0.00,,---,0.00,VWS V14.01,2013-09-06 22:40:00,
2013-09-06 18:45:00,64.8,35.0,29.95,NNE,17,0.0,0.0,33,0.00,,---,0.00,VWS V14.01,2013-09-06 22:45:00,
2013-09-06 18:50:00,64.0,35.1,29.95,NNE,17,0.0,0.0,34,0.00,,---,0.00,VWS V14.01,2013-09-06 22:50:00,
2013-09-06 18:55:00,63.5,34.7,29.95,NNE,17,0.0,0.0,34,0.00,,---,0.00,VWS V14.01,2013-09-06 22:55:00,
2013-09-06 19:00:00,63.1,34.3,29.95,NNE,17,0.0,0.0,34,0.00,,---,0.00,VWS V14.01,2013-09-06 23:00:00,
2013-09-06 19:05:00,62.8,34.0,29.95,NNE,17,0.0,0.0,34,0.00,,---,0.00,VWS V14.01,2013-09-06 23:05:00,
2013-09-06 19:10:00,62.4,33.7,29.95,NNE,17,0.0,0.0,34,0.00,,---,0.00,VWS V14.01,2013-09-06 23:10:00,
2013-09-06 19:15:00,62.1,33.4,29.95,NNE,17,0.0,0.0,34,0.00,,---,0.00,VWS V14.01,2013-09-06 23:15:00,
2013-09-06 19:20:00,61.7,33.1,29.95,NNE,17,0.0,0.0,34,0.00,,---,0.00,VWS V14.01,2013-09-06 23:20:00,
2013-09-06 19:25:00,61.3,32.8,29.95,NNE,17,0.0,0.0,34,0.00,,---,0.00,VWS V14.01,2013-09-06 23:25:00,
2013-09-06 19:30:00,61.0,32.4,29.95,NNE,17,0.0,0.0,34,0.00,,---,0.00,VWS V14.01,2013-09-06 23:30:00,
2013-09-06 19:35:00,60.4,32.0,29.95,NNE,17,0.0,0.0,34,0.00,,---,0.00,VWS V14.01,2013-09-06 23:35:00,
2013-09-06 19:40:00,60.1,31.6,29.95,NNE,17,0.0,0.0,34,0.00,,---,0.00,VWS V14.01,2013-09-06 23:40:00,
2013-09-06 19:45:00,59.9,31.5,29.95,NNE,17,0.0,0.0,34,0.00,,---,0.00,VWS V14.01,2013-09-06 23:45:00,
2013-09-06 19:50:00,59.7,31.3,29.95,NNE,17,0.0,0.0,34,0.00,,---,0.00,VWS V14.01,2013-09-06 23:50:00,
2013-09-06 19:55:00,59.4,31.0,29.95,NNE,17,0.0,0.0,34,0.00,,---,0.00,VWS V14.01,2013-09-06 23:55:00,
2013-09-06 20:00:00,59.2,30.9,29.95,NNE,17,0.0,0.0,34,0.00,,---,0.00,VWS V14.01,2013-09-07 00:00:00,
2013-09-06 20:05:00,58.8,31.2,29.95,NNE,17,0.0,0.0,35,0.00,,---,0.00,VWS V14.01,2013-09-07 00:05:00,
2013-09-06 20:10:00,58.5,30.9,29.95,NNE,17,0.0,0.0,35,0.00,,---,0.00,VWS V14.01,2013-09-07 00:10:00,
2013-09-06 20:15:00,58.3,30.8,29.95,NNE,17,0.0,0.0,35,0.00,,---,0.00,VWS V14.01,2013-09-07 00:15:00,
2013-09-06 20:20:00,58.3,30.8,29.95,NNE,17,0.0,0.0,35,0.00,,---,0.00,VWS V14.01,2013-09-07 00:20:00,
2013-09-06 20:25:00,58.1,30.6,29.95,NNE,17,0.0,0.0,35,0.00,,---,0.00,VWS V14.01,2013-09-07 00:25:00,
2013-09-06 20:30:00,57.9,30.5,29.95,NNE,17,0.0,0.0,35,0.00,,---,0.00,VWS V14.01,2013-09-07 00:30:00,
2013-09-06 20:35:00,57.7,30.3,29.95,NNE,17,0.0,0.0,35,0.00,,---,0.00,VWS V14.01,2013-09-07 00:35:00,
2013-09-06 20:40:00,57.7,30.3,29.95,NNE,17,0.0,0.0,35,0.00,,---,0.00,VWS V14.01,2013-09-07 00:40:00,
2013-09-06 20:45:00,57.6,30.1,29.95,NNE,17,0.0,0.0,35,0.00,,---,0.00,VWS V14.01,2013-09-07 00:45:00,
2013-09-06 20:50:00,57.2,29.8,29.95,NNE,17,0.0,0.0,35,0.00,,---,0.00,VWS V14.01,2013-09-07 00:50:00,
2013-09-06 20:55:00,57.2,29.8,29.95,NNE,17,0.0,0.0,35,0.00,,---,0.00,VWS V14.01,2013-09-07 00:55:00,
2013-09-06 21:00:00,56.8,29.5,29.95,NNE,17,0.0,0.0,35,0.00,,---,0.00,VWS V14.01,2013-09-07 01:00:00,
2013-09-06 21:05:00,56.8,29.5,29.95,NNE,17,0.0,0.0,35,0.00,,---,0.00,VWS V14.01,2013-09-07 01:05:00,
2013-09-06 21:10:00,56.7,29.3,29.95,NNE,17,0.0,0.0,35,0.00,,---,0.00,VWS V14.01,2013-09-07 01:10:00,
2013-09-06 21:15:00,56.5,29.2,29.95,NNE,17,0.0,0.0,35,0.00,,---,0.00,VWS V14.01,2013-09-07 01:15:00,
2013-09-06 21:20:00,56.3,29.0,29.95,NNE,17,0.0,0.0,35,0.00,,---,0.00,VWS V14.01,2013-09-07 01:20:00,
2013-09-06 21:25:00,56.1,28.9,29.95,NNE,17,0.0,0.0,35,0.00,,---,0.00,VWS V14.01,2013-09-07 01:25:00,
2013-09-06 21:30:00,55.8,28.5,29.95,NNE,17,0.0,0.0,35,0.00,,---,0.00,VWS V14.01,2013-09-07 01:30:00,
2013-09-06 21:35:00,55.4,28.2,29.95,NNE,17,0.0,0.0,35,0.00,,---,0.00,VWS V14.01,2013-09-07 01:35:00,
2013-09-06 21:40:00,55.2,28.8,29.95,NNE,17,0.0,0.0,36,0.00,,---,0.00,VWS V14.01,2013-09-07 01:40:00,
2013-09-06 21:45:00,55.0,28.6,29.95,NNE,17,0.0,0.0,36,0.00,,---,0.00,VWS V14.01,2013-09-07 01:45:00,
2013-09-06 21:50:00,54.9,28.4,29.95,NNE,17,0.0,0.0,36,0.00,,---,0.00,VWS V14.01,2013-09-07 01:50:00,
2013-09-06 21:55:00,54.7,28.3,29.95,NNE,17,0.0,0.0,36,0.00,,---,0.00,VWS V14.01,2013-09-07 01:55:00,
2013-09-06 22:00:00,54.9,28.4,29.95,NNE,17,0.0,0.0,36,0.00,,---,0.00,VWS V14.01,2013-09-07 02:00:00,
2013-09-06 22:05:00,54.9,28.4,29.95,NNE,17,0.0,0.0,36,0.00,,---,0.00,VWS V14.01,2013-09-07 02:05:00,
2013-09-06 22:10:00,54.7,28.3,29.95,NNE,17,0.0,0.0,36,0.00,,---,0.00,VWS V14.01,2013-09-07 02:10:00,
2013-09-06 22:15:00,54.5,28.1,29.95,NNE,17,0.0,0.0,36,0.00,,---,0.00,VWS V14.01,2013-09-07 02:15:00,
2013-09-06 22:20:00,54.5,28.1,29.95,NNE,17,0.0,0.0,36,0.00,,---,0.00,VWS V14.01,2013-09-07 02:20:00,
2013-09-06 22:25:00,54.5,28.1,29.95,NNE,17,0.0,0.0,36,0.00,,---,0.00,VWS V14.01,2013-09-07 02:25:00,
2013-09-06 22:30:00,54.7,28.3,29.95,NNE,17,0.0,0.0,36,0.00,,---,0.00,VWS V14.01,2013-09-07 02:30:00,
2013-09-06 22:35:00,54.7,28.3,29.95,NNE,17,0.0,0.0,36,0.00,,---,0.00,VWS V14.01,2013-09-07 02:35:00,
2013-09-06 22:39:00,54.7,28.3,29.95,NNE,17,0.0,0.0,36,0.00,,---,0.00,VWS V14.01,2013-09-07 02:39:00,
2013-09-06 22:44:00,54.7,28.3,29.95,NNE,17,0.0,0.0,36,0.00,,---,0.00,VWS V14.01,2013-09-07 02:44:00,
2013-09-06 22:49:00,54.7,28.3,29.95,NNE,17,0.0,0.0,36,0.00,,---,0.00,VWS V14.01,2013-09-07 02:49:00,
2013-09-06 22:54:00,54.7,28.3,29.95,NNE,17,0.0,0.0,36,0.00,,---,0.00,VWS V14.01,2013-09-07 02:54:00,
2013-09-06 22:59:00,54.7,28.3,29.95,NNE,17,0.0,0.0,36,0.00,,---,0.00,VWS V14.01,2013-09-07 02:59:00,
2013-09-06 23:04:00,54.5,28.1,29.95,NNE,17,0.0,0.0,36,0.00,,---,0.00,VWS V14.01,2013-09-07 03:04:00,
2013-09-06 23:09:00,54.5,28.1,29.95,NNE,17,0.0,0.0,36,0.00,,---,0.00,VWS V14.01,2013-09-07 03:09:00,
2013-09-06 23:14:00,54.5,28.1,29.95,NNE,17,0.0,0.0,36,0.00,,---,0.00,VWS V14.01,2013-09-07 03:14:00,
2013-09-06 23:19:00,54.5,28.1,29.95,NNE,17,0.0,0.0,36,0.00,,---,0.00,VWS V14.01,2013-09-07 03:19:00,
2013-09-06 23:24:00,54.3,28.0,29.95,NNE,18,0.0,0.0,36,0.00,,---,0.00,VWS V14.01,2013-09-07 03:24:00,
2013-09-06 23:29:00,54.3,28.0,29.95,NNE,18,0.0,0.0,36,0.00,,---,0.00,VWS V14.01,2013-09-07 03:29:00,
2013-09-06 23:34:00,54.5,28.1,29.95,NNE,18,0.0,0.0,36,0.00,,---,0.00,VWS V14.01,2013-09-07 03:34:00,
2013-09-06 23:39:00,54.5,28.1,29.95,NNE,18,0.0,0.0,36,0.00,,---,0.00,VWS V14.01,2013-09-07 03:39:00,
2013-09-06 23:44:00,54.5,28.1,29.95,NNE,18,0.0,0.0,36,0.00,,---,0.00,VWS V14.01,2013-09-07 03:44:00,
2013-09-06 23:49:00,54.5,28.1,29.95,NNE,18,0.0,0.0,36,0.00,,---,0.00,VWS V14.01,2013-09-07 03:49:00,
2013-09-06 23:54:00,54.3,28.0,29.95,NNE,18,0.0,0.0,36,0.00,,---,0.00,VWS V14.01,2013-09-07 03:54:00,
2013-09-06 23:59:00,54.3,28.0,29.95,NNE,24,0.0,0.0,36,0.00,,---,0.00,VWS V14.01,2013-09-07 03:59:00,